Tracking 18796 objects as of 20-September-2017
HD Live streaming from Space Station
objects crossing your sky now

SL-16 DEB

Track SL-16 DEB now!
10-day predictions


NORAD ID: 28354
Int'l Code: 2004-021C
Perigee: 849.5 km
Apogee: 1,176.6 km
Inclination: 71.0 °
Period: 105.2 minutes
Semi major axis: 7384 km
RCS: 0.0814 m2 (small)
Launch date: June 10, 2004
Source: Commonwealth of Independent States (former USSR) (CIS)
Launch site: TYURATAM MISSILE AND SPACE COMPLEX (TTMTR)

Note: This is SATELLITE DEBRIS
aabbcc
Your satellite tracking list
Your tracking list is empty





NASA's NSSDC Master Catalog

Two Line Element Set (TLE):
1 28354U 04021C   17262.36867929 -.00000001 +00000-0 +39660-4 0  9997
2 28354 070.9549 247.6869 0221527 145.3147 216.2629 13.68242028662484
Source of the keplerian elements: AFSPC